DL5DI-H Weather Reports


Display with metric or nautical units.
time (UTC)temp
F
wind
direction
speed
MPH
gust
MPH
rain 1hr
in
rain 24hr
in
rain mn
in
humidity
%
barometer
mb
20260507064004 49 346 3.0 11.0 0.00 0.00 0.00 87 1013.9
20260507063000 49 327 2.0 4.0 0.00 0.00 0.00 88 1013.9
20260507062004 49 327 2.0 4.0 0.00 0.00 0.00 88 1013.9
20260507061005 48 331 2.0 6.0 0.00 0.00 0.00 88 1013.5
20260507060004 48 339 2.0 6.0 0.00 0.00 0.00 88 1013.3
20260507055001 48 339 2.0 6.0 0.00 0.00 0.00 88 1013.3
20260507054000 48 317 2.0 4.0 0.00 0.00 0.00 89 1012.8
20260507053001 48 317 2.0 4.0 0.00 0.00 0.00 89 1012.8
20260507052004 48 317 2.0 4.0 0.00 0.00 0.00 89 1012.8
20260507051000 48 317 2.0 4.0 0.00 0.00 0.00 89 1012.8
20260507050005 48 317 2.0 4.0 0.00 0.00 0.00 89 1012.8
20260507045004 48 334 3.0 7.0 0.00 0.00 0.00 89 1012.8
20260507044004 48 334 3.0 7.0 0.00 0.00 0.00 89 1012.8
20260507043005 48 319 2.0 5.0 0.00 0.00 0.00 89 1012.7
20260507042005 48 326 2.0 4.0 0.00 0.00 0.00 89 1012.6
20260507041001 48 326 2.0 4.0 0.00 0.00 0.00 89 1012.6
20260507040000 48 306 1.0 3.0 0.00 0.00 0.00 90 1012.5
20260507035004 48 343 1.0 4.0 0.00 0.00 0.00 89 1012.3
20260507034004 48 343 1.0 4.0 0.00 0.00 0.00 89 1012.3
20260507033000 48 335 2.0 3.0 0.00 0.00 0.00 89 1012.3
20260507032004 48 344 1.0 2.0 0.00 0.00 0.00 89 1012.2
20260507031000 48 123 1.0 3.0 0.00 0.00 0.00 89 1012.2
20260507030000 48 303 1.0 3.0 0.00 0.00 0.00 89 1012.1
20260507025004 48 304 2.0 6.0 0.00 0.00 0.00 89 1012.1
20260507024000 49 0 2.0 4.0 0.00 0.00 0.00 89 1012.0
20260507023004 48 180 2.0 4.0 0.00 0.00 0.00 89 1012.0
20260507022004 48 347 2.0 7.0 0.00 0.00 0.00 89 1011.9
20260507021004 49 328 1.0 4.0 0.00 0.00 0.00 89 1011.9
20260507020004 49 324 1.0 4.0 0.00 0.00 0.00 89 1011.8
20260507015004 49 339 2.0 5.0 0.00 0.00 0.00 89 1011.8
20260507014000 49 8 2.0 6.0 0.00 0.00 0.00 89 1011.7
20260507013000 49 49 1.0 3.0 0.00 0.00 0.00 89 1011.7
20260507012004 49 336 1.0 2.0 0.00 0.00 0.00 89 1011.6
20260507011004 49 336 2.0 4.0 0.00 0.00 0.00 89 1011.5
20260507010004 49 331 1.0 4.0 0.00 0.00 0.00 89 1011.4
20260507005000 49 319 1.0 4.0 0.00 0.00 0.00 89 1011.4
20260507004004 49 322 3.0 6.0 0.00 0.00 0.00 89 1011.3
20260507003004 49 334 2.0 5.0 0.00 0.00 0.00 90 1011.3
20260507002000 49 318 3.0 7.0 0.00 0.00 0.00 89 1011.3
20260507001000 49 312 3.0 4.0 0.00 0.00 0.00 89 1011.3
20260507000005 49 307 2.0 6.0 0.00 0.00 0.00 89 1011.3
20260506235001 49 13 1.0 3.0 0.00 0.00 0.00 90 1011.2
20260506234000 49 340 2.0 4.0 0.00 0.00 0.00 90 1011.2
20260506233004 49 329 2.0 4.0 0.00 0.00 0.00 89 1011.2
20260506232004 49 307 2.0 4.0 0.00 0.00 0.00 89 1011.2
20260506231004 49 333 2.0 4.0 0.00 0.00 0.00 89 1011.1
20260506230001 49 320 2.0 4.0 0.00 0.00 0.00 89 1011.1
20260506225000 50 325 2.0 4.0 0.00 0.00 0.00 89 1011.1
20260506224000 50 24 1.0 4.0 0.00 0.00 0.00 90 1011.0
20260506223000 50 336 1.0 2.0 0.00 0.00 0.00 90 1010.9
20260506222004 50 30 2.0 4.0 0.00 0.00 0.00 90 1010.7
20260506221004 49 8 1.0 4.0 0.00 0.00 0.00 90 1010.7
20260506220005 49 183 1.0 3.0 0.00 0.00 0.06 90 1010.6
20260506215005 49 358 1.0 2.0 0.00 0.00 0.06 90 1010.6
20260506214004 49 5 2.0 5.0 0.00 0.00 0.06 90 1010.6
20260506213004 49 331 2.0 5.0 0.00 0.00 0.06 90 1010.5
20260506212004 49 332 2.0 6.0 0.00 0.00 0.06 90 1010.5
20260506211000 49 329 3.0 7.0 0.00 0.00 0.06 90 1010.4
20260506210004 49 315 2.0 4.0 0.00 0.00 0.06 90 1010.3
20260506205000 49 316 2.0 5.0 0.00 0.00 0.06 90 1010.3
20260506204005 49 317 2.0 7.0 0.00 0.00 0.06 89 1010.1
20260506203000 49 317 2.0 7.0 0.00 0.00 0.06 89 1010.1
20260506202004 49 317 2.0 7.0 0.00 0.00 0.06 89 1010.1
20260506201004 49 317 2.0 7.0 0.00 0.00 0.06 89 1010.1
20260506200000 49 317 2.0 7.0 0.00 0.00 0.06 89 1010.1
20260506195004 49 320 4.0 9.0 0.00 0.00 0.06 88 1009.9
20260506194004 49 334 3.0 9.0 0.00 0.00 0.06 88 1009.9
20260506193000 50 328 2.0 5.0 0.00 0.00 0.06 88 1009.6
20260506192004 49 306 2.0 6.0 0.00 0.00 0.06 88 1009.5
20260506191004 49 321 2.0 6.0 0.00 0.00 0.06 88 1009.4
20260506190000 50 316 3.0 7.0 0.00 0.00 0.06 88 1009.2
20260506185000 50 322 4.0 11.0 0.00 0.00 0.06 88 1009.1
20260506184001 50 326 4.0 9.0 0.00 0.00 0.06 88 1008.9
20260506183006 50 315 4.0 9.0 0.00 0.00 0.06 87 1008.9
20260506182004 50 320 4.0 14.0 0.00 0.00 0.06 87 1008.8
20260506181001 50 325 4.0 14.0 0.00 0.00 0.06 87 1008.8
20260506180000 50 329 3.0 9.0 0.00 0.00 0.06 87 1008.8
20260506175000 53 344 2.0 2.0 0.00 0.00 0.06 83 1008.6
20260506174004 53 344 2.0 2.0 0.00 0.00 0.06 83 1008.6
20260506173000 53 344 2.0 2.0 0.00 0.00 0.06 83 1008.6
20260506172005 53 344 2.0 2.0 0.00 0.00 0.06 83 1008.6
20260506171004 53 344 2.0 2.0 0.00 0.00 0.06 83 1008.6
20260506170004 53 344 2.0 2.0 0.00 0.00 0.06 83 1008.6
20260506165004 53 299 2.0 5.0 0.00 0.00 0.06 83 1008.4
20260506164004 53 329 1.0 2.0 0.00 0.00 0.06 84 1008.3
20260506163000 53 329 1.0 2.0 0.00 0.00 0.06 84 1008.3
20260506162004 54 320 2.0 4.0 0.00 0.00 0.06 83 1008.1
20260506161000 54 341 2.0 4.0 0.00 0.00 0.06 84 1007.9
20260506160004 54 341 2.0 4.0 0.00 0.00 0.06 84 1007.9
20260506155004 54 343 2.0 8.0 0.00 0.00 0.06 84 1007.7
20260506154004 54 333 3.0 9.0 0.00 0.00 0.06 83 1007.6
20260506153005 54 333 3.0 9.0 0.00 0.00 0.06 83 1007.6
20260506152004 55 334 3.0 9.0 0.00 0.00 0.06 82 1007.5
20260506151005 55 327 4.0 13.0 0.00 0.00 0.06 83 1007.3
20260506150004 55 327 4.0 13.0 0.00 0.00 0.06 83 1007.3
20260506145000 55 340 4.0 8.0 0.00 0.00 0.06 83 1007.2
20260506144004 55 338 4.0 7.0 0.00 0.00 0.06 83 1007.3
20260506143005 55 338 4.0 7.0 0.00 0.00 0.06 83 1007.3
20260506142000 55 334 4.0 9.0 0.00 0.00 0.06 83 1007.3
20260506141001 55 333 3.0 7.0 0.00 0.00 0.06 83 1007.1
20260506140000 55 333 3.0 7.0 0.00 0.00 0.06 83 1007.1
20260506135004 55 330 4.0 12.0 0.00 0.00 0.06 83 1007.0
20260506134000 56 331 3.0 7.0 0.00 0.00 0.06 82 1007.1
20260506133000 56 331 3.0 7.0 0.00 0.00 0.06 82 1007.1
20260506132000 56 334 3.0 11.0 0.00 0.00 0.06 81 1007.0
20260506131004 57 336 4.0 10.0 0.00 0.00 0.06 82 1006.8
20260506130005 57 336 4.0 10.0 0.00 0.00 0.06 82 1006.8
20260506125004 57 340 4.0 11.0 0.00 0.00 0.06 82 1006.7
20260506124004 56 316 2.0 6.0 0.00 0.00 0.06 85 1006.8
20260506123000 56 316 2.0 6.0 0.00 0.00 0.06 85 1006.8
20260506122000 56 329 2.0 6.0 0.00 0.00 0.06 85 1006.7
20260506121004 56 329 2.0 5.0 0.00 0.00 0.06 85 1006.7
20260506120005 56 329 2.0 5.0 0.00 0.00 0.06 85 1006.7
20260506115000 56 329 3.0 7.0 0.00 0.00 0.06 85 1006.6
20260506114000 56 347 2.0 4.0 0.00 0.00 0.06 86 1006.7
20260506113005 57 334 1.0 4.0 0.00 0.00 0.06 87 1006.6
20260506112000 56 302 2.0 6.0 0.00 0.00 0.06 86 1006.5
20260506111004 56 339 2.0 6.0 0.00 0.00 0.06 87 1006.5
20260506110004 56 335 2.0 7.0 0.00 0.00 0.06 87 1006.4
20260506105004 56 343 3.0 7.0 0.00 0.00 0.06 87 1006.4
20260506104000 56 341 2.0 4.0 0.00 0.00 0.06 88 1006.4
20260506103000 55 350 2.0 4.0 0.00 0.00 0.06 88 1006.3
20260506102000 55 347 2.0 6.0 0.00 0.00 0.06 88 1006.2
20260506101004 55 334 2.0 6.0 0.00 0.00 0.06 89 1006.2
20260506100001 55 348 2.0 4.0 0.00 0.00 0.06 89 1006.2
20260506095004 55 355 2.0 6.0 0.00 0.00 0.06 89 1006.1
20260506094000 55 341 3.0 6.0 0.00 0.00 0.06 90 1006.0
20260506093004 55 341 2.0 8.0 0.00 0.00 0.06 90 1005.9
20260506092004 54 339 3.0 6.0 0.00 0.00 0.06 90 1005.9
20260506091000 54 340 2.0 5.0 0.00 0.00 0.06 90 1005.9
20260506090000 54 340 2.0 4.0 0.00 0.00 0.06 90 1005.9
20260506085005 54 334 2.0 5.0 0.00 0.00 0.06 90 1005.8
20260506084000 54 337 2.0 6.0 0.00 0.00 0.06 90 1005.7
20260506083005 54 349 3.0 4.0 0.00 0.00 0.06 90 1005.6
20260506082000 54 352 2.0 4.0 0.00 0.00 0.06 90 1005.7
20260506081000 54 1 2.0 5.0 0.00 0.00 0.06 90 1005.7
20260506073004 54 352 2.0 4.0 0.00 0.00 0.06 91 1005.7
20260506072001 54 356 1.0 3.0 0.00 0.00 0.06 91 1005.6
20260506071004 54 338 1.0 3.0 0.00 0.00 0.06 91 1005.6